[[{"header":{"parameterUnit":"m.s-1","parameterCategory":1,"la1":30.2992,"la2":30.254,"lo1":-89.0895,"lo2":-89.0443,"dy":0.0025,"dx":0.0025,"nx":19,"ny":19,"refTime":"2026-04-17T21:00:00:Z","depth":0,"parameterNumber":2,"parameterNumberName":"U-component_of_WINDS"},"data":[0,0,0,0.0817,0.082,0.0975,0.0976,0.1153,0.1155,0,0,0,0,0,0,0,0,0,0,0,0.0758,0.0759,0.0816,0.082,0.0975,0.0976,0.1153,0.1155,0,0,0,0,0,0,0,0,0,0,0,0.0758,0.0759,0.076,0.0821,0.0975,0.0976,0.1153,0.1043,0,0,0,0,0,0,0,0,0,0,0.0896,0.0829,0.0758,0.076,0.0821,0.0974,0.0976,0.1038,0.105,0.1074,0,0.1092,0,0.1126,0.1165,0.1166,0,0,0,0.083,0.082,0.0873,0.076,0.0823,0.0974,0.0908,0.1045,0.1058,0.1089,0.1094,0.1102,0.1129,0.1166,0.1167,0.1271,0.1271,0,0,0.0821,0.0779,0.0863,0.0881,0.0855,0.0903,0.0912,0.1053,0.1056,0.1095,0.1106,0.1132,0.1167,0.1168,0.1271,0.1271,0,0,0,0.079,0.0773,0.0823,0.0873,0.0902,0.0907,0.0918,0.105,0.107,0.1108,0.1134,0.1168,0.117,0.1271,0.1271,0.123,0,0,0,0.0785,0.0755,0.0819,0.0795,0.0899,0.0978,0.0911,0.106,0.1077,0.1133,0.1168,0.1172,0.1271,0.1271,0.1231,0.1218,0,0,0,0.0752,0.0751,0.0769,0.0792,0.0857,0.0977,0.1005,0.1065,0.1092,0.1166,0.1172,0.1271,0.1271,0.1232,0.122,0.1233,0,0,0,0.0705,0.0732,0.0767,0.0807,0.0855,0.095,0.1005,0.1078,0.1136,0.1169,0.1271,0.1271,0.1233,0.1221,0.1233,0.1235,0.1232,0,0,0.0715,0.0732,0.0758,0.0795,0.0872,0.093,0.1002,0.1096,0.1142,0.1225,0.1228,0.1231,0.122,0.1233,0.1229,0.1226,0,0,0,0.0747,0.0766,0.0795,0.0848,0.0919,0.0979,0.1066,0.1101,0.1173,0.1176,0.124,0.1235,0.1244,0.1247,0.1245,0.1255,0.127,0.127,0.127,0.0702,0.0758,0.0805,0.088,0.093,0.1018,0.1064,0.1126,0.1169,0.1183,0.1209,0.1199,0.1201,0.12,0.1209,0.1214,0.1214,0.1214,0.1214,0.0722,0.0756,0.0811,0.0877,0.0936,0.0992,0.1078,0.1106,0.1167,0.1186,0.1196,0.1212,0.1195,0.1206,0.1212,0.1212,0.1212,0.1212,0.1213,0.0698,0.0724,0.0765,0.0846,0.0902,0.0977,0.1031,0.1084,0.1134,0.1144,0.1176,0.1177,0.1184,0.1156,0.1156,0.1156,0.1156,0.1156,0.1156,0.0657,0.0705,0.0744,0.0821,0.086,0.092,0.1007,0.1048,0.1107,0.1141,0.1142,0.1182,0.1182,0.1181,0.1155,0.1155,0.1155,0.1155,0.1155,0.0657,0.0665,0.0726,0.0765,0.0859,0.091,0.0976,0.1054,0.1096,0.1121,0.1159,0.1151,0.1172,0.1174,0.1173,0.1147,0.1147,0.1147,0.1147,0.0636,0.0651,0.0725,0.0785,0.085,0.0914,0.0981,0.1049,0.1121,0.115,0.1161,0.1165,0.1165,0.1186,0.1188,0.1188,0.1166,0.1166,0.1166,0.0639,0.0662,0.0709,0.0778,0.0855,0.0919,0.0983,0.105,0.1133,0.1168,0.1174,0.1173,0.1179,0.1178,0.1213,0.1215,0.1217,0,0]},{"header":{"parameterUnit":"m.s-1","parameterCategory":1,"la1":30.2992,"la2":30.254,"lo1":-89.0895,"lo2":-89.0443,"dy":0.0025,"dx":0.0025,"nx":19,"ny":19,"refTime":"2026-04-17T21:00:00:Z","depth":0,"parameterNumber":3,"parameterNumberName":"V-component_of_WINDS"},"data":[0,0,0,4.4425,4.4426,4.4435,4.4435,4.4465,4.4466,0,0,0,0,0,0,0,0,0,0,0,4.4433,4.4433,4.4425,4.4426,4.4436,4.4435,4.4465,4.4466,0,0,0,0,0,0,0,0,0,0,0,4.4432,4.4433,4.4434,4.4426,4.4436,4.4435,4.4465,4.4452,0,0,0,0,0,0,0,0,0,0,4.4439,4.4456,4.4433,4.4434,4.4426,4.4436,4.4435,4.4451,4.4453,4.4468,0,4.4485,0,4.4476,4.4469,4.4469,0,0,0,4.4418,4.4455,4.4448,4.4434,4.4426,4.4436,4.4429,4.4452,4.4454,4.4471,4.4485,4.4486,4.4476,4.4469,4.4469,4.4585,4.4586,0,0,4.4418,4.444,4.4447,4.445,4.4449,4.4429,4.4429,4.4453,4.447,4.4485,4.4486,4.4477,4.447,4.447,4.4584,4.4585,0,0,0,4.4421,4.444,4.4432,4.4449,4.4449,4.4429,4.443,4.4469,4.4464,4.4486,4.4477,4.447,4.447,4.4583,4.4585,4.4651,0,0,0,4.4421,4.4442,4.4432,4.4446,4.4449,4.4459,4.4446,4.4463,4.4464,4.4477,4.447,4.4471,4.4582,4.4584,4.4647,4.4678,0,0,0,4.4429,4.4443,4.4448,4.4447,4.4452,4.4458,4.4455,4.4462,4.4459,4.4469,4.4471,4.4582,4.4584,4.4643,4.4672,4.4715,0,0,0,4.4444,4.4506,4.4449,4.4515,4.4452,4.4499,4.4454,4.4488,4.4504,4.447,4.4582,4.4585,4.4642,4.4669,4.4712,4.4756,4.4776,0,0,4.4535,4.4518,4.4555,4.4504,4.4567,4.4496,4.4567,4.4561,4.4542,4.4572,4.4574,4.4648,4.4672,4.4715,4.4882,4.4899,0,0,0,4.4592,4.4619,4.463,4.4647,4.4644,4.4643,4.4624,4.4621,4.4646,4.4562,4.4674,4.4688,4.4712,4.4732,4.4746,4.4766,4.4595,4.4595,4.4594,4.4753,4.4725,4.4785,4.4758,4.4775,4.4754,4.4765,4.4758,4.4725,4.4752,4.4761,4.4866,4.489,4.4901,4.4921,4.4782,4.4782,4.4782,4.4782,4.4885,4.4919,4.4873,4.4915,4.4885,4.492,4.4903,4.4878,4.4907,4.4857,4.4877,4.4825,4.492,4.4936,4.4787,4.4786,4.4786,4.4785,4.4785,4.4987,4.4999,4.4995,4.5016,4.5035,4.5006,4.5036,4.5007,4.4981,4.5,4.5007,4.5005,4.5001,4.5005,4.5006,4.5006,4.5006,4.5007,4.5007,4.5096,4.5089,4.5117,4.5119,4.5126,4.5132,4.5112,4.5118,4.5118,4.5095,4.5095,4.5059,4.4934,4.4903,4.5012,4.5011,4.5011,4.501,4.501,4.524,4.5203,4.5246,4.5253,4.5253,4.5275,4.5238,4.5254,4.5254,4.527,4.523,4.5142,4.5123,4.5112,4.5086,4.5236,4.5236,4.5236,4.5236,4.5327,4.5314,4.5352,4.5366,4.5375,4.5346,4.5397,4.5383,4.5362,4.5361,4.5335,4.5299,4.5288,4.5275,4.526,4.5236,4.5421,4.5421,4.5421,4.5414,4.5401,4.545,4.5428,4.5426,4.5426,4.5473,4.549,4.5459,4.5428,4.536,4.5352,4.5293,4.5275,4.5243,4.522,4.5175,0,0]}]]